Simultaneous Nadir Overpasses (SNOs) Predictions

Prediction of SNOs between NOAA-19 and NPP Satellite Orbit:

Table of predicted SNOs for the next 14.0 days since TLE Epoch: 5/6/2023
Index Date (NOAA-19) Time (NOAA-19) Lat,Lon (NOAA-19) SZA (NOAA-19 ) Date (NPP) Time (NPP) Lat,Lon (NPP) SZA (NPP ) Distance(km) Time Diff (sec)
1 05/12/2023 14:43:11 -74.90, 123.25 122.78 05/12/2023 14:44:17 -74.98, 126.18 122.92 85.14 66
2 05/12/2023 15:33:57 75.26, -68.35 57.49 05/12/2023 15:35:09 75.29, -67.40 57.43 26.79 72
3 05/12/2023 16:24:58 -75.46, 99.52 122.38 05/12/2023 16:25:57 -75.46, 99.38 122.38 3.84 59
4 05/12/2023 17:15:52 75.45, -93.22 57.61 05/12/2023 17:16:42 75.44, -93.24 57.59 1.58 50
5 05/12/2023 18:06:57 -75.46, 74.05 122.39 05/12/2023 18:07:27 -75.47, 73.98 122.39 2.06 30
6 05/12/2023
